Retour au catalogue

COSMOS 2251 DEB

ActifLEO
NORAD 33916·DEBRIS·🇷🇺 Russia

Lancé Jun 16, 1993 depuis Plesetsk Cosmodrome

Loading…

Prochains Passages (prochaines 24 heures)

TLE

FraisSource: Space-Track

Époque: Sep 14, 2026, 14:21 UTC

1 33916U 93036DV  26257.59810737  .00000172  00000-0  15488-3 0  9994
2 33916  74.0514 307.2601 0322867  57.6815  91.6318 13.68815900876655

Suivez COSMOS 2251 DEB en temps réel avec AllMySat

Download on the App Store